Temperature
17 18 18 18 18 18 18 19 19 18 18 17 17 17 17 17 16 15 15 14 14 13 13 12 12 12 11 11 12 12 12 11 11 11 10 10 9 8 8 7 7 6 6
17 17 17 17 17 18 18 18 18 18 18 18 17 17 17 17 17 16 15 15 14 14 13 12 12 12 11 11 11 11 11 11 11 11 10 10 9 8 7 7 7 6 5
16 17 17 17 17 17 17 17 17 18 17 17 17 17 16 16 16 16 15 15 14 14 13 13 12 12 12 11 11 11 11 11 11 11 10 10 10 8 7 7 6 6 5
16 16 16 17 17 17 17 17 17 17 17 17 17 17 17 16 16 16 16 15 15 14 14 13 12 12 12 11 11 11 11 11 11 10 10 10 9 9 8 7 6 6 5
17 17 17 16 16 16 16 16 16 17 17 17 17 16 17 17 17 17 16 16 15 14 14 13 12 12 11 11 11 11 11 10 10 10 9 9 8 8 7 7 6 5 5
17 16 16 16 16 16 16 16 16 16 16 16 16 16 16 16 16 16 16 16 15 14 13 13 12 12 11 11 11 10 10 10 10 9 9 8 8 7 6 5 5 4 5
16 16 16 15 15 15 15 16 16 16 16 16 16 16 16 16 16 16 16 16 15 14 13 12 12 11 11 10 10 10 10 9 9 8 8 7 7 6 5 4 3 3 3
14 15 15 15 15 15 15 15 15 15 15 15 15 15 15 16 16 16 16 15 15 14 14 12 12 11 10 10 9 9 9 8 8 8 7 6 6 5 4 3 2 1 1
13 13 13 13 14 14 14 14 14 14 15 15 15 14 15 15 15 15 15 14 14 13 12 12 11 10 9 9 8 8 8 8 7 7 6 5 5 4 3 2 1 0 -2
12 12 11 12 12 13 13 13 14 14 14 14 14 14 14 14 15 15 14 13 12 12 11 11 10 9 8 8 7 7 7 7 6 6 5 5 4 3 2 2 1 -0 -2
11 11 11 11 11 11 12 12 13 13 13 13 13 13 13 13 13 13 13 12 11 11 10 10 8 7 7 7 6 6 6 6 5 5 4 4 3 2 2 1 0 -1 -2
10 10 10 10 10 10 11 11 12 12 13 13 12 12 12 12 12 12 11 11 10 10 9 8 7 6 6 6 6 5 5 5 4 4 3 3 2 1 1 0 -1 -1 -2
8 8 9 9 9 9 10 11 11 11 12 12 11 11 11 11 11 11 10 10 9 9 7 6 5 5 5 5 5 4 4 4 3 3 2 2 1 1 0 -1 -1 -2 -3
7 7 7 8 8 8 9 9 10 10 10 10 10 10 10 10 10 10 9 9 8 7 5 4 4 4 4 4 4 3 3 3 2 2 1 1 0 -0 -1 -2 -3 -4 -5
6 6 7 7 7 7 8 8 9 9 9 9 9 9 9 9 9 8 7 6 5 4 4 3 3 3 3 3 2 2 2 2 1 1 0 0 -0 -1 -2 -4 -5 -6 -6
5 5 6 6 6 6 6 7 7 7 7 7 7 8 7 7 6 6 5 4 3 3 2 2 2 2 1 1 1 1 1 1 0 0 -0 -1 -1 -2 -3 -5 -6 -6 -7
3 4 5 5 5 5 5 5 5 5 5 5 5 5 4 4 4 3 3 2 2 1 1 1 1 1 1 1 1 0 -0 -0 -0 -1 -1 -1 -2 -3 -4 -5 -6 -7 -7
2 3 3 4 4 4 4 4 4 3 3 3 2 2 2 2 2 2 1 1 1 0 1 1 1 0 0 -0 -0 -1 -1 -1 -1 -2 -2 -3 -3 -4 -5 -6 -7 -8 -8
1 2 2 2 2 2 2 2 2 2 2 1 1 1 1 1 1 1 1 0 0 0 0 -0 -0 -0 -1 -1 -1 -1 -1 -2 -2 -2 -3 -4 -5 -5 -6 -8 -8 -9 -8
1 1 1 1 1 1 1 1 1 1 0 0 0 0 1 1 1 1 0 0 0 -0 -0 -1 -1 -1 -1 -2 -2 -2 -2 -3 -3 -3 -4 -5 -6 -7 -8 -9 -9 -9 -9
0 0 0 1 0 -0 0 1 0 0 -0 -0 0 0 1 1 1 0 0 -0 -1 -1 -1 -1 -2 -2 -2 -3 -3 -4 -4 -4 -4 -5 -5 -6 -7 -8 -9 -9 -9 -9 -9
0 0 0 0 0 -0 0 0 0 0 0 1 1 1 1 0 0 -0 -1 -1 -1 -1 -1 -2 -2 -2 -3 -3 -4 -4 -5 -6 -6 -6 -7 -7 -8 -9 -9 -9 -9 -9 -9
1 1 1 1 1 1 1 1 1 1 1 1 1 0 -0 -0 -1 -1 -1 -1 -2 -2 -2 -2 -2 -3 -3 -4 -5 -5 -6 -7 -8 -8 -8 -9 -9 -9 -9 -9 -9 -9 -9
2 2 2 2 2 2 2 2 1 1 1 1 0 -0 -0 -1 -1 -1 -2 -2 -2 -2 -2 -3 -3 -4 -4 -5 -6 -6 -7 -8 -8 -9 -9 -9 -9 -9 -9 -9 -9 -9 -9
2 2 3 2 2 2 2 2 1 1 1 0 -0 -1 -1 -1 -1 -2 -2 -2 -2 -2 -3 -3 -4 -5 -5 -6 -7 -8 -9 -9 -10 -10 -9 -9 -9 -9 -8 -8 -8 -8 -9
2 2 3 2 2 2 1 1 1 1 1 0 -0 -1 -1 -1 -1 -2 -2 -2 -3 -3 -4 -5 -5 -6 -7 -8 -8 -9 -9 -9 -10 -10 -9 -9 -9 -9 -9 -9 -9 -8 -8
Wind_Speed
14 11 10 10 10 9 9 10 12 14 14 11 12 12 13 12 11 9 13 17 17 18 14 9 9 8 7 7 8 5 4 3 2 3 3 3 2 1 1 3 3 4 4
13 12 11 9 9 9 9 9 11 12 13 14 14 11 12 9 10 9 11 16 18 18 16 13 11 9 8 8 7 5 4 2 2 3 3 1 2 2 2 0 2 2 3
17 14 12 12 10 10 10 9 10 11 12 12 8 5 4 3 3 7 10 11 17 18 16 15 12 11 10 9 7 7 7 4 2 2 4 4 4 2 3 3 2 2 3
15 13 12 11 11 11 9 9 9 10 11 12 12 13 11 10 10 10 9 10 12 15 17 16 14 13 10 10 8 6 5 6 4 2 2 2 3 3 1 3 2 2 2
12 11 10 9 8 7 6 7 7 8 9 12 15 16 12 9 6 8 10 10 9 11 14 15 14 13 11 10 9 7 6 4 5 4 3 2 3 2 2 2 4 3 3
8 7 6 4 3 3 3 4 5 6 8 12 15 17 16 12 12 12 13 11 8 8 11 13 12 12 11 11 10 8 8 5 5 4 4 3 3 2 3 3 3 4 4
4 5 5 4 3 2 2 2 3 5 7 11 14 16 17 18 19 17 16 14 11 8 14 13 12 12 11 10 9 9 8 7 8 5 4 3 3 3 3 3 2 3 3
5 5 5 5 4 4 3 3 4 6 7 10 13 13 14 13 12 14 15 15 12 9 12 12 12 11 12 11 9 8 7 6 7 6 5 4 3 3 3 3 2 2 3
8 8 7 6 6 5 5 5 5 7 8 10 11 11 13 13 13 13 11 10 9 9 12 12 13 12 11 11 11 8 7 7 5 6 5 4 3 3 3 3 4 3 3
10 10 8 8 7 6 6 6 6 8 8 9 11 11 12 12 13 13 14 13 12 13 14 14 14 13 12 11 10 8 7 7 5 4 5 4 3 3 3 3 3 4 5
13 12 10 8 8 7 6 6 6 6 7 9 10 11 11 11 13 13 14 14 13 15 15 15 14 13 12 11 10 8 8 7 6 5 5 4 4 3 3 3 3 4 4
14 13 11 9 8 8 8 7 7 7 7 8 10 12 13 13 13 13 14 15 16 15 15 14 14 12 12 10 10 9 7 7 6 5 4 4 3 4 4 4 4 5 5
15 13 10 8 8 7 7 7 7 7 6 8 11 12 13 14 14 14 15 16 16 15 14 14 13 12 10 9 8 8 6 6 5 4 3 3 4 4 4 5 5 5 6
13 11 9 8 7 6 6 6 6 3 4 8 11 12 12 13 14 15 15 15 16 15 14 13 12 11 10 9 8 7 6 5 4 3 1 3 4 5 6 5 7 6 6
12 10 8 7 5 4 3 3 3 3 6 8 10 10 12 13 15 15 15 15 15 15 14 14 12 11 9 8 8 6 5 4 3 1 1 2 4 7 6 6 5 5 4
13 10 7 4 2 2 4 6 7 8 10 11 12 13 15 16 17 16 16 16 16 15 15 13 12 9 7 10 9 6 4 3 1 1 3 4 5 7 9 10 12 11 8
13 10 6 4 5 6 8 9 10 12 14 14 14 15 17 18 17 18 18 17 15 14 13 11 10 9 9 9 7 6 3 2 2 2 3 3 4 6 5 9 13 12 15
10 9 8 9 9 10 11 12 13 15 15 15 15 15 17 18 18 17 16 14 12 11 10 9 8 7 7 8 6 6 4 2 2 1 1 3 5 6 8 7 7 7 8
8 8 8 9 10 11 12 14 15 15 15 15 15 15 16 17 16 16 14 11 10 9 8 6 7 6 6 7 5 5 2 0 2 3 3 5 5 12 14 9 7 8 9
7 8 9 10 11 11 12 15 14 14 14 14 13 13 14 15 14 13 12 9 8 8 7 6 5 5 4 5 4 4 2 2 3 3 4 8 10 14 15 9 8 10 10
7 8 9 9 9 9 11 13 12 12 11 12 12 12 12 13 12 11 9 8 7 7 6 5 3 2 3 3 2 2 2 2 3 4 4 5 14 16 17 15 8 12 13
6 7 8 8 7 8 10 12 11 9 10 11 12 12 11 10 9 9 8 7 7 6 5 4 3 2 2 2 3 5 6 6 2 4 4 7 16 17 17 13 13 18 14
6 6 8 8 8 8 9 11 9 10 11 12 12 11 10 8 8 8 8 6 6 5 4 3 3 1 2 4 6 7 9 11 6 5 11 14 16 15 10 13 16 13 7
6 7 8 9 9 9 10 10 9 9 11 11 10 9 9 8 7 6 6 5 5 4 4 3 2 1 2 3 4 4 5 8 8 7 10 12 12 10 11 11 9 7 7
7 7 8 9 9 9 9 8 8 10 11 10 9 8 7 7 7 5 4 4 3 4 3 2 1 1 2 4 7 6 4 5 6 6 2 3 5 5 6 6 6 6 7
8 9 9 9 9 9 9 7 7 8 10 9 7 6 6 5 5 5 4 5 4 4 4 3 3 3 5 8 10 12 13 13 12 6 4 5 6 7 8 9 9 9 8
Wind_Direction
260 263 255 246 244 245 230 213 207 208 201 193 190 191 195 194 191 187 178 173 169 165 159 155 152 150 148 150 140 121 107 79 82 97 62 21 30 127 181 189 182 191 187
263 260 255 250 241 240 235 221 212 209 204 200 196 195 194 194 190 178 173 172 169 167 165 160 162 156 146 146 148 136 122 99 74 128 119 80 344 334 5 324 169 138 108
254 254 252 250 246 242 236 230 218 210 205 202 187 155 118 97 145 172 177 176 172 170 167 164 161 160 158 163 162 151 142 143 94 91 143 153 201 260 328 11 57 100 96
250 249 246 247 246 245 245 241 232 217 205 194 185 177 182 184 188 185 177 171 172 170 167 165 163 163 160 160 163 155 147 140 143 112 76 117 141 154 264 326 355 27 82
251 250 247 239 241 245 249 253 251 235 212 197 193 193 194 185 164 158 158 164 169 169 167 165 163 162 160 158 152 146 142 138 148 150 136 109 79 100 148 257 310 329 315
254 242 237 217 225 243 251 260 260 250 223 205 199 198 189 167 157 162 168 169 166 166 168 167 163 161 158 156 151 145 140 135 132 132 134 141 144 154 156 206 260 283 291
247 233 218 208 211 223 246 262 266 262 233 211 206 203 191 177 176 174 175 171 171 173 174 166 162 159 153 148 143 141 138 136 135 135 126 125 131 138 144 165 233 273 290
308 275 250 230 228 229 237 259 266 260 239 217 210 203 188 182 182 177 174 176 177 171 165 158 154 151 148 145 140 137 133 132 133 136 134 131 135 137 146 156 163 282 295
329 311 294 273 254 248 246 246 256 258 239 218 203 193 183 177 173 169 161 159 152 151 152 151 148 148 145 141 138 138 132 133 133 138 138 134 137 135 139 144 156 184 260
326 315 306 294 282 268 266 266 258 249 237 212 196 187 180 174 165 160 159 157 153 152 151 150 147 144 140 138 134 133 135 133 136 142 142 143 153 152 155 163 173 180 201
305 297 289 284 285 288 287 284 280 263 232 204 186 171 168 162 159 162 160 154 149 150 151 150 148 145 141 139 139 139 142 140 140 144 157 171 170 173 184 187 195 207 204
294 286 277 272 277 285 287 281 278 261 232 197 174 166 160 157 158 157 153 149 147 147 147 145 143 142 140 140 143 145 145 144 147 152 161 184 187 195 202 208 223 231 225
294 285 275 266 267 275 283 282 280 262 226 180 162 156 155 155 152 148 145 144 142 141 140 139 138 136 134 131 130 129 129 129 134 145 175 204 203 218 224 229 237 242 250
302 293 281 273 272 283 287 290 292 264 187 158 151 149 148 144 139 136 136 136 136 134 131 126 123 122 119 116 113 112 110 106 101 102 167 224 220 227 233 239 243 249 258
317 310 294 283 286 297 318 0 22 59 103 116 119 120 119 119 120 121 121 120 120 119 115 112 108 106 105 107 108 107 106 103 93 61 328 279 253 246 252 254 246 241 249
325 320 315 309 316 21 52 57 57 63 82 94 100 104 108 109 108 108 108 106 105 106 107 108 107 101 104 114 113 113 107 104 81 350 327 307 289 289 300 299 296 291 284
335 341 349 15 48 63 74 73 72 76 81 87 93 99 103 103 103 104 102 101 101 102 103 105 105 104 112 119 121 121 120 93 43 360 341 332 325 332 306 296 298 295 295
360 13 34 52 60 70 78 82 83 85 88 91 93 97 100 101 101 100 100 101 102 103 104 106 112 119 136 142 142 128 106 79 39 10 337 307 303 305 300 279 277 269 277
22 35 49 63 69 75 84 87 87 90 92 94 96 99 104 105 105 105 105 106 108 107 110 121 134 146 160 162 153 140 128 118 299 294 302 312 299 308 310 304 291 285 281
38 51 60 69 74 79 89 91 92 94 96 99 100 101 105 108 109 110 109 109 113 118 124 129 145 157 172 185 180 165 176 249 286 295 298 315 316 311 311 303 293 292 289
51 61 68 73 78 86 93 96 96 98 102 102 99 98 100 104 107 106 110 118 120 120 117 114 109 133 185 213 248 265 194 253 298 308 307 303 316 313 312 312 303 297 304
64 72 77 75 73 83 94 95 93 97 100 99 98 98 100 104 110 111 112 112 114 110 106 105 90 54 22 355 332 335 336 332 307 301 291 294 310 314 318 319 311 311 321
83 81 86 82 74 79 95 100 100 104 104 101 102 101 97 96 103 109 108 99 98 106 109 115 111 60 21 0 0 347 335 327 319 292 302 308 315 322 323 315 316 323 320
101 100 98 93 88 89 95 103 109 108 106 104 100 99 98 92 83 85 95 105 112 116 119 118 106 32 348 322 304 295 302 309 304 294 300 315 324 325 319 316 315 307 296
112 107 106 104 102 101 101 102 105 108 105 100 97 92 90 93 88 83 93 111 124 142 137 145 159 196 286 293 316 321 294 285 285 312 329 336 325 322 316 311 305 304 308
119 116 113 113 110 107 101 95 100 113 115 108 98 95 95 92 91 90 71 71 86 89 108 165 203 243 278 310 327 326 325 326 329 343 334 320 317 315 317 317 316 313 307
Height
1461 1463 1465 1468 1470 1472 1474 1476 1478 1480 1483 1486 1489 1491 1493 1495 1498 1500 1503 1506 1509 1511 1514 1516 1519 1521 1523 1524 1525 1526 1526 1526 1526 1526 1525 1525 1525 1524 1524 1524 1524 1523 1523
1456 1457 1459 1462 1463 1465 1467 1469 1470 1473 1475 1478 1481 1484 1487 1489 1491 1494 1497 1501 1504 1507 1509 1512 1515 1517 1520 1521 1522 1523 1524 1524 1524 1524 1523 1523 1524 1522 1522 1522 1521 1521 1520
1448 1450 1453 1455 1457 1459 1461 1462 1464 1466 1468 1471 1475 1478 1481 1484 1486 1488 1491 1494 1498 1501 1504 1507 1510 1513 1516 1517 1519 1520 1521 1521 1521 1521 1521 1520 1519 1520 1519 1519 1518 1517 1517
1442 1443 1445 1448 1450 1452 1454 1455 1457 1458 1461 1464 1466 1468 1471 1473 1476 1480 1484 1488 1492 1495 1499 1502 1505 1508 1511 1514 1516 1517 1518 1518 1518 1518 1518 1518 1517 1517 1516 1516 1515 1514 1514
1438 1439 1440 1442 1444 1445 1447 1448 1449 1451 1453 1455 1457 1460 1463 1466 1470 1474 1478 1481 1485 1489 1493 1496 1500 1503 1506 1509 1511 1513 1514 1515 1515 1515 1514 1514 1513 1513 1513 1512 1512 1511 1511
1436 1437 1438 1438 1439 1441 1441 1442 1443 1444 1446 1448 1450 1452 1455 1458 1462 1466 1470 1474 1478 1482 1486 1490 1494 1497 1500 1503 1506 1508 1510 1511 1511 1511 1510 1510 1509 1509 1508 1507 1506 1505 1504
1435 1435 1435 1436 1436 1437 1437 1438 1438 1439 1440 1441 1442 1445 1448 1451 1455 1459 1463 1467 1470 1474 1478 1483 1487 1491 1495 1498 1501 1504 1505 1506 1507 1507 1506 1506 1505 1504 1503 1502 1501 1498 1496
1435 1434 1433 1432 1432 1432 1432 1433 1433 1433 1434 1435 1435 1437 1440 1444 1448 1452 1456 1459 1463 1467 1471 1476 1481 1485 1489 1492 1496 1499 1501 1502 1502 1502 1502 1501 1500 1500 1499 1498 1497 1493 1490
1435 1433 1431 1430 1428 1428 1428 1428 1428 1428 1428 1428 1428 1430 1432 1436 1441 1446 1450 1453 1457 1461 1466 1470 1475 1480 1483 1487 1491 1494 1496 1498 1498 1499 1498 1497 1496 1495 1494 1493 1492 1490 1485
1433 1431 1429 1427 1425 1423 1422 1422 1422 1422 1421 1421 1421 1422 1425 1430 1435 1439 1443 1447 1451 1456 1460 1464 1469 1474 1479 1483 1487 1490 1492 1494 1494 1494 1494 1493 1492 1491 1490 1488 1486 1484 1481
1431 1427 1425 1422 1420 1419 1417 1416 1416 1416 1415 1415 1415 1416 1419 1424 1429 1433 1438 1442 1446 1450 1455 1460 1465 1470 1474 1479 1483 1486 1488 1490 1490 1490 1489 1489 1488 1486 1485 1483 1481 1479 1476
1425 1421 1418 1415 1414 1412 1411 1411 1410 1410 1409 1409 1410 1412 1415 1419 1424 1428 1433 1437 1441 1446 1451 1456 1461 1467 1471 1475 1479 1482 1485 1485 1485 1485 1485 1484 1483 1481 1480 1478 1475 1473 1470
1417 1413 1410 1408 1407 1406 1405 1405 1405 1404 1404 1404 1405 1407 1411 1415 1419 1424 1429 1433 1437 1442 1447 1453 1459 1464 1469 1473 1477 1480 1481 1481 1481 1481 1480 1479 1478 1476 1474 1472 1469 1467 1464
1412 1407 1404 1402 1400 1400 1400 1399 1399 1399 1399 1399 1401 1403 1407 1411 1416 1421 1425 1430 1434 1439 1445 1452 1458 1464 1468 1472 1475 1477 1478 1477 1476 1476 1475 1474 1473 1471 1469 1466 1463 1460 1457
1408 1403 1400 1398 1396 1396 1395 1395 1395 1394 1395 1396 1398 1401 1405 1409 1413 1418 1423 1428 1433 1439 1445 1451 1457 1463 1467 1471 1473 1474 1474 1473 1472 1471 1470 1469 1468 1465 1463 1460 1457 1455 1451
1406 1402 1398 1396 1394 1393 1393 1393 1393 1393 1394 1395 1397 1400 1403 1407 1411 1416 1422 1427 1433 1439 1446 1452 1459 1463 1467 1469 1471 1471 1470 1469 1468 1467 1466 1464 1462 1460 1457 1455 1452 1450 1447
1406 1401 1398 1396 1394 1393 1393 1393 1393 1393 1394 1396 1397 1400 1403 1407 1412 1418 1423 1430 1436 1443 1449 1455 1459 1463 1465 1467 1468 1467 1466 1465 1464 1463 1461 1459 1456 1454 1451 1448 1446 1443 1441
1406 1402 1399 1396 1395 1395 1395 1395 1395 1396 1397 1398 1400 1403 1407 1411 1416 1422 1428 1435 1440 1446 1451 1455 1458 1461 1463 1464 1464 1464 1463 1462 1461 1458 1455 1453 1450 1448 1445 1442 1439 1437 1435
1409 1405 1402 1400 1399 1398 1398 1398 1398 1399 1401 1403 1406 1409 1413 1417 1423 1428 1434 1439 1444 1448 1452 1455 1458 1460 1461 1462 1462 1461 1460 1459 1457 1454 1451 1448 1445 1442 1439 1437 1434 1431 1428
1411 1408 1406 1404 1403 1402 1402 1402 1403 1405 1407 1409 1412 1417 1420 1424 1428 1432 1437 1442 1446 1450 1453 1456 1458 1459 1460 1460 1459 1458 1456 1454 1452 1449 1446 1443 1440 1437 1435 1433 1429 1425 1421
1413 1411 1410 1408 1407 1407 1408 1408 1409 1410 1413 1415 1418 1421 1425 1428 1432 1437 1441 1445 1448 1452 1454 1456 1458 1458 1458 1457 1456 1454 1452 1449 1446 1444 1441 1438 1435 1432 1430 1428 1424 1420 1417
1417 1415 1414 1413 1413 1413 1413 1413 1414 1417 1419 1421 1424 1427 1431 1434 1438 1442 1445 1448 1451 1453 1455 1456 1456 1456 1456 1454 1453 1451 1448 1445 1442 1439 1436 1433 1431 1428 1425 1422 1418 1415 1412
1421 1420 1419 1419 1419 1419 1420 1420 1422 1424 1426 1428 1431 1434 1437 1440 1443 1446 1448 1451 1452 1454 1454 1455 1455 1454 1453 1451 1449 1447 1444 1441 1438 1435 1432 1429 1426 1423 1420 1417 1414 1410 1406
1424 1424 1424 1424 1424 1426 1427 1428 1429 1431 1433 1434 1437 1439 1442 1444 1447 1449 1451 1452 1453 1453 1453 1453 1452 1451 1449 1448 1445 1443 1440 1437 1434 1431 1428 1425 1422 1419 1415 1412 1409 1406 1402
1427 1428 1428 1428 1429 1431 1432 1433 1435 1437 1438 1440 1442 1444 1446 1448 1449 1450 1452 1452 1452 1452 1452 1451 1450 1448 1446 1444 1442 1439 1436 1433 1430 1427 1423 1420 1417 1414 1411 1408 1405 1402 1398
1428 1430 1431 1432 1433 1435 1436 1438 1440 1442 1443 1444 1446 1447 1449 1450 1451 1452 1452 1451 1451 1450 1449 1448 1446 1444 1443 1440 1438 1435 1433 1430 1427 1423 1419 1416 1413 1410 1406 1403 1400 1397 1394